Tracking 29892 objects as of 21-Nov-2024
HD Live streaming from Space Station
objects crossing your sky now

DELTA 1 DEB

Track DELTA 1 DEB now!
10-day predictions


NORAD ID: 3417
Int'l Code: 1968-069D
Perigee: 1,462.5 km
Apogee: 1,567.0 km
Inclination: 102.1 °
Period: 116.2 minutes
Semi major axis: 7885 km
RCS: 0.0804 m2 (small)
Launch date: August 16, 1968
Source: United States (US)
Launch site: AIR FORCE WESTERN TEST RANGE (AFWTR)

Note: This is SATELLITE DEBRIS
Your satellite tracking list
Your tracking list is empty




NASA's NSSDC Master Catalog

Two Line Element Set (TLE):
1 03417U 68069D   24324.78042883 -.00000012  00000-0  24855-3 0  9990
2 03417 102.1195 259.8137 0066281  37.1029 350.4369 12.39760100851650
Source of the keplerian elements: AFSPC